This is the latest recevied weather packets stored in our database for station/object WS2Z. If no packets are shown the sender has not sent any weather packets the latest 10 day(s).
| Time | Temp. | Humidity | Pressure | Rain* | Wind** | Luminosity | Snow |
|---|---|---|---|---|---|---|---|
| 1777745052 | 31.67° C | 58% | 1012.3 hPa | 0 mm | - | 865 W/m² | - |
| 1777744748 | 31.67° C | 58% | 1012.3 hPa | 0 mm | - | 865 W/m² | - |
| 1777744442 | 31.67° C | 58% | 1012.4 hPa | 0 mm | - | 868 W/m² | - |
| 1777744139 | 31.67° C | 61% | 1012.4 hPa | 0 mm | - | 873 W/m² | - |
| 1777743836 | 31.67° C | 59% | 1012.6 hPa | 0 mm | - | 872 W/m² | - |
| 1777743532 | 32.78° C | 58% | 1012.5 hPa | 0 mm | - | 869 W/m² | - |
| 1777743229 | 32.22° C | 58% | 1012.6 hPa | 0 mm | - | 872 W/m² | - |
| 1777742928 | 31.67° C | 60% | 1012.8 hPa | 0 mm | - | 867 W/m² | - |
| 1777742624 | 31.67° C | 57% | 1012.7 hPa | 0 mm | - | 876 W/m² | - |
| 1777742320 | 31.67° C | 61% | 1012.6 hPa | 0 mm | - | 875 W/m² | - |
| 1777742017 | 31.67° C | 62% | 1012.7 hPa | 0 mm | - | 875 W/m² | - |
| 1777741714 | 31.11° C | 61% | 1012.8 hPa | 0 mm | - | 878 W/m² | - |
| 1777741410 | 31.67° C | 61% | 1012.9 hPa | 0 mm | - | 870 W/m² | - |
| 1777741106 | 31.11° C | 64% | 1012.7 hPa | 0 mm | - | 872 W/m² | - |
| 1777740804 | 31.11° C | 62% | 1012.5 hPa | 0 mm | - | 867 W/m² | - |
| 1777740501 | 31.11° C | 61% | 1012.4 hPa | 0 mm | - | 866 W/m² | - |
| 1777740198 | 31.67° C | 62% | 1012.4 hPa | 0 mm | - | 853 W/m² | - |
| 1777739894 | 31.11° C | 64% | 1012.3 hPa | 0 mm | - | 756 W/m² | - |
| 1777739590 | 31.11° C | 65% | 1012.5 hPa | 0 mm | - | 856 W/m² | - |
| 1777739288 | 31.11° C | 67% | 1012.7 hPa | 0 mm | - | 846 W/m² | - |
| 1777738984 | 31.11° C | 66% | 1012.5 hPa | 0 mm | - | 849 W/m² | - |
| 1777738681 | 31.67° C | 65% | 1012.7 hPa | 0 mm | - | 845 W/m² | - |
| 1777738377 | 31.67° C | 65% | 1012.7 hPa | 0 mm | - | 857 W/m² | - |
| 1777738075 | 31.11° C | 66% | 1012.8 hPa | 0 mm | - | 830 W/m² | - |
| 1777737774 | 31.11° C | 66% | 1012.5 hPa | 0 mm | - | 795 W/m² | - |
* Rain latest hour (hover to see other rain measurements)
** Current wind speed in m/s (hover to see current wind gust speed)